SL-12 R/B(AUX MOTOR), 29682

Orbit data source: Space-Track

SL-12 R/B(AUX MOTOR), 29682 is space debris in HEO originally from a launch on Mon, 25 Dec 2006 UTC launched from the Tyuratam Missile And Space Complex (TTMTR). Debris objects in space refer to the collection of defunct objects orbiting the Earth. Examples of debris include non-operational satellites, rocket bodies, and fragments generated from explosions, collisions, or faulty payload assembly.

Loading next visibility...
Identifier
29682, 2006-062H
Orbit
HEO
Country
Flag of CISCIS
Related business
Manufacturer
RKKE
Mission
Spacecraft
Bus & Motor
SOZ, Unknown motor
Mass
56 kg wet, 56 kg dry
Launch date (UTC)
2006-12-25 (19 years ago)
Launch vehicle
Unknown
Launch site
Tyuratam Missile And Space Complex (TTMTR)
Object type
Payload
Rocket body
Debris
Shape & HBR
Cyl, 0.6 m
Radar Cross Section
0.660 m², Medium (>0.1 m² and < 1m²)

Expand to show TLE details & history
Last TLE update: 1 day ago

TLE from 1 day ago
0 SL-12 R/B(AUX MOTOR)
1 29682U 06062H   26123.96363363 -.00000092  00000-0 -28367-3 0  9996
2 29682  65.1792  34.1665 5619565 254.2910  39.7347  4.25383767299697
Epoch: 2026-05-03T23:07Z
TLE epoch observation values (Epoch: 2026-05-03T23:07:37.945Z)
Latitude
-0.00001°
Longitude
-174.58529°
Altitude
6,629.662 km
Speed
6.043 km/s
True Right ascension
02h 16m 43s
True Declination
0° 00' 00"
Sunlit
Object was in daylight at epoch
Visualization orbit readout
Latitude
Unknown
Longitude
Unknown
Altitude
Unknown
Speed
Unknown
Apparent Right ascension
Unknown
Apparent Declination
Unknown
Sunlit
N/A
Visualization observer readout
Local Sidereal Time
18:10:35
Azimuth
Unknown
Elevation
Unknown
Doppler factor
Unknown
Orbital elements
Apogee altitude
18,751.507 km
Perigee altitude
669.356 km
Semi-major axis
16,088.568 km
Eccentricity
0.56196
Inclination
65.1792°
RAAN
34.1665°
Arg. of periapsis
254.291°
True anomaly
105.78733°
Mean anomaly
39.7347°
Eccentric anomaly
69.98846°
Mean motion
1.06357 °/min
Orbital period
338.48 mins
BSTAR
-0.00028367
Loading maneuver chart data...
Computing Atmospheric mass density...
Loading historical data...
Loading historical data...
Loading historical data...
Loading historical data...
Loading historical data...
Loading historical data...
Loading historical data...

Documentation

Showing up to 5 results
|